CW8405 Weather Reports


time (UTC)temp
C
wind
direction
speed
KPH
gust
KPH
rain 1hr
cm
rain 24hr
cm
rain mn
cm
humidity
%
barometer
mb
20260505073938 11 266 0.0 0.0 0.00 0.00 0.00 89 1010.3
20260505072943 11 266 0.0 0.0 0.00 0.00 0.00 88 1010.2
20260505071945 11 266 0.0 0.0 0.00 0.00 0.00 88 1010.1
20260505070952 11 266 0.0 0.0 0.00 0.00 0.00 87 1010.0
20260505070011 11 266 0.0 0.0 0.00 0.00 0.00 87 1010.0
20260505065036 11 266 0.0 0.0 0.00 0.00 0.00 87 1010.0
20260505064012 11 266 0.0 0.0 0.00 0.00 0.00 87 1009.8
20260505062941 11 266 0.0 0.0 0.00 0.00 0.00 87 1009.8
20260505062005 11 266 0.0 0.0 0.00 0.00 0.00 86 1009.6
20260505055830 11 266 0.0 0.0 0.00 0.00 0.00 86 1009.2
20260505052519 12 266 0.0 0.0 0.00 0.00 0.00 85 1009.1
20260505051453 12 266 0.0 0.0 0.00 0.00 0.00 84 1009.0
20260505050455 12 266 0.0 0.0 0.00 0.00 0.00 84 1008.9
20260505041241 13 266 0.0 0.0 0.00 0.00 0.00 82 1008.5
20260505040220 13 266 0.0 0.0 0.00 0.00 0.00 81 1008.3
20260505035221 13 266 0.0 0.0 0.00 0.00 0.00 82 1008.2
20260505034230 13 266 0.0 0.0 0.00 0.00 0.00 82 1008.0
20260505033159 14 266 0.0 0.0 0.00 0.00 0.00 81 996.3
20260505031003 14 266 0.0 0.0 0.00 0.00 0.00 81 996.3
20260505030024 14 266 0.0 0.0 0.00 0.00 0.00 80 996.3
20260505025032 14 266 0.0 0.0 0.00 0.00 0.00 80 996.3
20260505024033 15 266 0.0 0.0 0.00 0.00 0.00 79 996.3
20260505023010 15 266 0.0 0.0 0.00 0.00 0.00 78 996.3
20260505020819 16 266 0.0 0.0 0.00 0.00 0.00 76 973.9
20260505015825 16 266 0.0 0.0 0.00 0.00 0.00 74 925.5
20260505014824 16 266 0.0 0.0 0.00 0.00 0.00 73 925.5
20260505013828 17 263 0.0 0.0 0.00 0.00 0.00 69 925.5
20260505011645 18 258 0.0 0.0 0.00 0.00 0.00 67 925.5
20260505010652 18 267 0.0 1.6 0.00 0.00 0.00 68 910.2
20260505005619 19 267 1.6 123.9 0.00 0.00 0.00 63 910.2
20260505004624 20 254 1.6 25.7 0.00 0.00 0.00 55 910.2
20260505003606 21 294 0.0 20.9 0.00 0.00 0.00 51 905.3
20260505002627 21 348 1.6 12.9 0.00 0.00 0.00 51 905.3
20260505001558 21 350 1.6 20.9 0.00 0.00 0.00 51 905.3
20260505000606 22 342 3.2 25.7 0.00 0.00 0.00 49 905.3
20260504235537 22 304 0.0 30.6 0.00 0.00 0.00 50 912.3
20260504234508 22 290 0.0 0.0 0.00 0.00 0.00 56 901.1
20260504233529 21 263 0.0 19.3 0.00 0.00 0.00 61 925.3
20260504232503 20 252 0.0 66.0 0.00 0.00 0.00 61 925.3
20260504231446 19 242 0.0 12.9 0.00 0.00 0.00 63 925.3
20260504221055 23 260 0.0 0.0 0.00 0.00 0.00 62 922.0
20260504220023 25 251 0.0 1.6 0.00 0.00 0.00 56 896.3
20260504215020 22 250 0.0 4.8 0.00 0.00 0.00 56 896.3
20260504214008 22 244 0.0 0.0 0.00 0.00 0.00 54 922.6
20260504212948 21 239 0.0 1.6 0.00 0.00 0.00 59 902.0
20260504212011 21 235 0.0 8.0 0.00 0.00 0.00 59 885.9
20260504211014 21 245 0.0 3.2 0.00 0.00 0.00 62 885.9
20260504210014 21 247 0.0 4.8 0.00 0.00 0.00 62 885.3
20260504205034 21 250 0.0 4.8 0.00 0.00 0.00 63 885.3
20260504202917 21 251 0.0 3.2 0.00 0.00 0.00 63 885.3
20260504201857 22 252 0.0 0.0 0.00 0.00 0.00 61 885.3
20260504195731 21 250 0.0 4.8 0.00 0.00 0.00 65 885.3
20260504194657 21 248 0.0 0.0 0.00 0.00 0.00 65 885.3
20260504193630 21 249 0.0 0.0 0.00 0.00 0.00 63 885.3
20260504192648 21 229 0.0 3.2 0.00 0.00 0.00 63 885.3
20260504191633 21 231 0.0 0.0 0.00 0.00 0.00 66 885.3
20260504190558 20 227 0.0 3.2 0.00 0.00 0.00 67 885.3
20260504185621 19 215 0.0 3.2 0.00 0.00 0.00 71 885.3
20260504184646 18 215 0.0 0.0 0.00 0.00 0.00 72 885.3
20260504183624 18 207 0.0 3.2 0.00 0.00 0.00 71 885.3
20260504182601 20 196 0.0 0.0 0.00 0.00 0.00 67 885.3
20260504181614 18 196 0.0 1.6 0.00 0.00 0.00 65 885.3
20260504175414 19 142 0.0 1.6 0.00 0.00 0.00 58 958.8
20260504174438 17 142 0.0 0.0 0.00 0.00 0.00 62 958.8
20260504173450 17 129 0.0 0.0 0.00 0.00 0.00 65 958.8
20260504171247 15 115 3.2 0.0 0.00 0.00 0.00 73 958.8
20260504170219 15 115 1.6 0.0 0.00 0.00 0.00 70 958.8
20260504160202 13 115 0.0 0.0 0.00 0.00 0.00 78 1009.0
20260504151042 12 115 0.0 0.0 0.00 0.00 0.00 81 1008.7
20260504140811 10 115 0.0 0.0 0.00 0.00 0.00 87 1008.4
20260504130640 9 115 0.0 19.3 0.00 0.00 0.00 86 1008.0
20260504110457 10 115 0.0 0.0 0.00 0.00 0.00 86 1008.0
20260504090131 11 115 0.0 0.0 0.00 0.00 0.00 78 1007.7
20260504081223 11 115 0.0 0.0 0.00 0.00 0.00 76 1007.6
20260504080207 11 115 0.0 0.0 0.00 0.00 0.00 75 1007.6